GW3754 Weather Reports


time (UTC)temp
C
wind
direction
speed
KPH
gust
KPH
rain 1hr
cm
rain 24hr
cm
rain mn
cm
humidity
%
barometer
mb
20260905224411 35 324 14.5 17.7 0.00 0.00 0.00 54 1009.4
20260905223905 35 332 8.0 9.7 0.00 0.00 0.00 53 1009.1
20260905223403 35 18 4.8 8.0 0.00 0.00 0.00 53 1009.1
20260905222858 35 10 8.0 9.7 0.00 0.00 0.00 54 1009.2
20260905222356 35 6 8.0 9.7 0.00 0.00 0.00 53 1009.2
20260905221852 35 337 3.2 3.2 0.00 0.00 0.00 52 1008.9
20260905221349 35 307 4.8 4.8 0.00 0.00 0.00 52 1009.0
20260905220839 35 282 4.8 8.0 0.00 0.00 0.00 52 1008.9
20260905220335 35 251 6.4 9.7 0.00 0.00 0.00 52 1009.1
20260905215834 35 279 9.7 11.3 0.00 0.00 0.00 51 1009.2
20260905215330 35 298 6.4 8.0 0.00 0.00 0.00 51 1009.3
20260905214826 35 359 3.2 4.8 0.00 0.00 0.00 50 1009.2
20260905214321 36 278 3.2 3.2 0.00 0.00 0.00 49 1008.9
20260905213816 36 243 4.8 4.8 0.00 0.00 0.00 49 1009.2
20260905213313 36 228 4.8 9.7 0.00 0.00 0.00 49 1009.2
20260905212812 36 291 11.3 12.9 0.00 0.00 0.00 49 1009.0
20260905212307 37 296 8.0 11.3 0.00 0.00 0.00 48 1009.2
20260905211801 37 170 8.0 11.3 0.00 0.00 0.00 47 1009.1
20260905211256 37 242 8.0 9.7 0.00 0.00 0.00 45 1009.1
20260905210753 37 305 6.4 8.0 0.00 0.00 0.00 45 1009.0
20260905210253 37 301 6.4 9.7 0.00 0.00 0.00 44 1008.9
20260905205751 38 309 12.9 12.9 0.00 0.00 0.00 44 1009.1
20260905205246 37 12 3.2 4.8 0.00 0.00 0.00 44 1009.2
20260905204746 37 302 11.3 14.5 0.00 0.00 0.00 44 1009.8
20260905204242 37 330 9.7 12.9 0.00 0.00 0.00 43 1009.3
20260905203741 38 271 8.0 9.7 0.00 0.00 0.00 43 1009.5
20260905203237 38 4 11.3 12.9 0.00 0.00 0.00 43 1009.6
20260905202732 37 35 6.4 8.0 0.00 0.00 0.00 44 1009.7
20260905202227 37 312 8.0 9.7 0.00 0.00 0.00 44 1009.6
20260905201722 37 324 11.3 14.5 0.00 0.00 0.00 44 1009.6
20260905201217 37 295 8.0 11.3 0.00 0.00 0.00 43 1009.9
20260905200712 38 17 8.0 9.7 0.00 0.00 0.00 43 1009.7
20260905200208 38 341 8.0 11.3 0.00 0.00 0.00 43 1009.7
20260905195706 38 358 1.6 1.6 0.00 0.00 0.00 44 1009.9
20260905195201 38 20 8.0 9.7 0.00 0.00 0.00 44 1009.8
20260905194656 38 233 8.0 9.7 0.00 0.00 0.00 43 1010.0
20260905194155 38 336 8.0 9.7 0.00 0.00 0.00 44 1009.8
20260905193650 37 35 6.4 8.0 0.00 0.00 0.00 45 1010.1
20260905193145 37 330 6.4 8.0 0.00 0.00 0.00 45 1010.2
20260905192640 37 333 6.4 9.7 0.00 0.00 0.00 45 1010.1
20260905192137 37 241 9.7 14.5 0.00 0.00 0.00 44 1010.4
20260905191636 37 269 6.4 8.0 0.00 0.00 0.00 43 1010.5
20260905191134 37 40 3.2 4.8 0.00 0.00 0.00 44 1010.5
20260905190627 37 352 6.4 8.0 0.00 0.00 0.00 45 1010.6
20260905190127 37 17 16.1 16.1 0.00 0.00 0.00 45 1010.6
20260905185626 37 4 1.6 1.6 0.00 0.00 0.00 47 1010.7
20260905185120 37 42 0.0 1.6 0.00 0.00 0.00 46 1010.9
20260905184615 37 339 11.3 12.9 0.00 0.00 0.00 47 1010.9
20260905184114 37 351 6.4 8.0 0.00 0.00 0.00 47 1010.9
20260905183613 37 271 4.8 4.8 0.00 0.00 0.00 48 1010.9
20260905183109 37 322 11.3 12.9 0.00 0.00 0.00 47 1010.9
20260905182608 37 301 1.6 3.2 0.00 0.00 0.00 47 1011.1
20260905182102 37 249 12.9 14.5 0.00 0.00 0.00 47 1011.1
20260905181602 37 223 6.4 8.0 0.00 0.00 0.00 47 1011.2
20260905181101 37 352 4.8 4.8 0.00 0.00 0.00 49 1011.2
20260905180556 36 89 0.0 0.0 0.00 0.00 0.00 50 1011.4
20260905180052 36 349 11.3 12.9 0.00 0.00 0.00 50 1011.5
20260905175551 36 301 9.7 11.3 0.00 0.00 0.00 51 1011.6
20260905175047 36 326 8.0 11.3 0.00 0.00 0.00 52 1011.5
20260905174542 37 317 8.0 9.7 0.00 0.00 0.00 50 1011.5
20260905174037 36 149 3.2 3.2 0.00 0.00 0.00 52 1011.8
20260905173534 36 277 4.8 8.0 0.00 0.00 0.00 52 1011.7
20260905173029 36 302 6.4 8.0 0.00 0.00 0.00 52 1011.7
20260905172527 36 35 6.4 8.0 0.00 0.00 0.00 55 1011.8
20260905172023 36 339 8.0 11.3 0.00 0.00 0.00 54 1011.9
20260905171519 36 255 1.6 3.2 0.00 0.00 0.00 54 1011.8
20260905171015 36 232 4.8 4.8 0.00 0.00 0.00 55 1011.9
20260905170511 36 279 4.8 9.7 0.00 0.00 0.00 55 1011.8
20260905170007 36 347 4.8 4.8 0.00 0.00 0.00 56 1011.9
20260905165501 35 353 3.2 4.8 0.00 0.00 0.00 56 1012.1
20260905164955 35 269 8.0 9.7 0.00 0.00 0.00 57 1012.3
20260905164450 35 15 1.6 1.6 0.00 0.00 0.00 56 1012.0
20260905163944 35 58 0.0 0.0 0.00 0.00 0.00 56 1012.4
20260905163441 35 319 6.4 8.0 0.00 0.00 0.00 56 1012.4
20260905162937 35 42 11.3 14.5 0.00 0.00 0.00 56 1012.6
20260905162432 35 1 8.0 9.7 0.00 0.00 0.00 56 1012.9
20260905161927 35 34 3.2 3.2 0.00 0.00 0.00 56 1012.7
20260905161426 35 319 9.7 12.9 0.00 0.00 0.00 56 1012.8
20260905160924 35 323 3.2 3.2 0.00 0.00 0.00 57 1012.8
20260905160418 35 346 8.0 9.7 0.00 0.00 0.00 58 1012.7
20260905155913 34 331 9.7 11.3 0.00 0.00 0.00 59 1012.7
20260905155413 34 8 8.0 9.7 0.00 0.00 0.00 58 1012.7
20260905154911 34 308 4.8 8.0 0.00 0.00 0.00 59 1012.9
20260905154407 34 240 3.2 4.8 0.00 0.00 0.00 61 1012.9
20260905153903 34 308 4.8 4.8 0.00 0.00 0.00 61 1013.0
20260905153359 35 147 0.0 1.6 0.00 0.00 0.00 58 1012.8
20260905152858 33 76 0.0 0.0 0.00 0.00 0.00 60 1012.8
20260905152357 33 169 3.2 3.2 0.00 0.00 0.00 61 1012.7
20260905151853 33 121 3.2 3.2 0.00 0.00 0.00 61 1012.7
20260905151348 34 54 0.0 0.0 0.00 0.00 0.00 60 1012.8
20260905150843 33 78 0.0 1.6 0.00 0.00 0.00 60 1012.7
20260905150337 32 236 1.6 3.2 0.00 0.00 0.00 63 1012.8
20260905145834 32 262 1.6 3.2 0.00 0.00 0.00 63 1012.9
20260905145329 33 234 3.2 4.8 0.00 0.00 0.00 61 1012.7
20260905144828 32 47 0.0 0.0 0.00 0.00 0.00 64 1012.8
20260905144323 32 115 3.2 3.2 0.00 0.00 0.00 65 1012.9
20260905143822 32 209 4.8 4.8 0.00 0.00 0.00 63 1012.7
20260905143316 32 118 1.6 1.6 0.00 0.00 0.00 65 1012.6
20260905142816 32 236 1.6 1.6 0.00 0.00 0.00 65 1012.9
20260905142310 31 197 3.2 3.2 0.00 0.00 0.00 66 1012.9
20260905141806 31 167 3.2 3.2 0.00 0.00 0.00 66 1013.1
20260905141301 31 81 1.6 1.6 0.00 0.00 0.00 65 1013.0
20260905140757 31 162 1.6 3.2 0.00 0.00 0.00 65 1013.0
20260905140256 31 48 0.0 1.6 0.00 0.00 0.00 65 1013.0
20260905135755 31 330 0.0 1.6 0.00 0.00 0.00 65 1012.8
20260905135252 31 127 1.6 1.6 0.00 0.00 0.00 66 1013.1
20260905134751 30 290 1.6 1.6 0.00 0.00 0.00 69 1013.0
20260905134245 31 354 3.2 3.2 0.00 0.00 0.00 67 1013.1
20260905133739 31 332 1.6 1.6 0.00 0.00 0.00 66 1013.0
20260905133235 31 52 0.0 0.0 0.00 0.00 0.00 65 1013.2
20260905132734 31 302 0.0 0.0 0.00 0.00 0.00 66 1013.0
20260905132230 30 350 0.0 1.6 0.00 0.00 0.00 68 1013.1
20260905131724 30 204 1.6 1.6 0.00 0.00 0.00 69 1013.1
20260905131220 30 85 0.0 0.0 0.00 0.00 0.00 70 1013.2
20260905130714 30 111 1.6 1.6 0.00 0.00 0.00 71 1013.2
20260905130214 30 186 0.0 1.6 0.00 0.00 0.00 71 1013.2
20260905125709 29 103 0.0 1.6 0.00 0.00 0.00 72 1013.2
20260905125204 28 70 0.0 1.6 0.00 0.00 0.00 75 1013.1
20260905124700 28 185 1.6 1.6 0.00 0.00 0.00 76 1013.1
20260905124156 29 101 1.6 1.6 0.00 0.00 0.00 76 1012.9
20260905123650 29 212 1.6 1.6 0.00 0.00 0.00 73 1012.8
20260905123148 28 197 1.6 3.2 0.00 0.00 0.00 71 1013.0
20260905122647 28 80 0.0 0.0 0.00 0.00 0.00 72 1013.1
20260905122143 28 45 0.0 0.0 0.00 0.00 0.00 73 1013.0
20260905121643 27 52 0.0 0.0 0.00 0.00 0.00 75 1013.2
20260905121138 27 44 0.0 0.0 0.00 0.00 0.00 76 1013.0
20260905120637 27 258 0.0 1.6 0.00 0.00 0.00 77 1012.9
20260905120132 27 331 1.6 3.2 0.00 0.00 0.00 77 1013.0
20260905115632 27 343 1.6 1.6 0.00 0.00 0.00 77 1013.0
20260905115127 27 5 0.0 0.0 0.00 0.00 0.00 78 1012.9
20260905114626 27 12 1.6 1.6 0.00 0.00 0.00 78 1012.9
20260905114124 27 41 0.0 0.0 0.00 0.00 0.00 78 1012.3
20260905113614 27 38 0.0 0.0 0.00 0.00 0.00 78 1012.5
20260905113110 27 349 3.2 3.2 0.00 0.00 0.00 78 1012.4
20260905112604 27 337 3.2 3.2 0.00 0.00 0.00 79 1012.5
20260905112100 27 317 3.2 4.8 0.00 0.00 0.00 80 1012.3
20260905111555 27 9 0.0 1.6 0.00 0.00 0.00 81 1012.5
20260905111054 27 356 1.6 1.6 0.00 0.00 0.00 81 1012.4
20260905110553 27 17 1.6 1.6 0.00 0.00 0.00 81 1012.3
20260905110048 27 20 0.0 0.0 0.00 0.00 0.00 81 1012.3
20260905105542 27 1 0.0 1.6 0.00 0.00 0.00 80 1012.3
20260905105042 27 341 0.0 0.0 0.00 0.00 0.00 80 1012.2
20260905104538 27 12 0.0 1.6 0.00 0.00 0.00 81 1012.1
20260905104037 27 30 0.0 0.0 0.00 0.00 0.00 81 1012.2
20260905103532 27 231 1.6 1.6 0.00 0.00 0.00 80 1012.3
20260905103029 27 221 1.6 1.6 0.00 0.00 0.00 80 1012.1
20260905102524 27 67 0.0 0.0 0.00 0.00 0.00 80 1012.2
20260905102021 27 44 0.0 0.0 0.00 0.00 0.00 78 1012.1
20260905101519 27 46 0.0 0.0 0.00 0.00 0.00 77 1012.3
20260905101017 27 51 0.0 0.0 0.00 0.00 0.00 77 1012.1
20260905100514 27 51 0.0 0.0 0.00 0.00 0.00 76 1012.0
20260905100014 27 50 0.0 0.0 0.00 0.00 0.00 76 1012.1
20260905095508 27 40 0.0 0.0 0.00 0.00 0.00 76 1012.1
20260905095003 28 42 0.0 0.0 0.00 0.00 0.00 75 1012.0
20260905094458 28 42 0.0 0.0 0.00 0.00 0.00 75 1011.7
20260905093957 28 20 0.0 0.0 0.00 0.00 0.00 75 1011.7
20260905093452 28 40 0.0 0.0 0.00 0.00 0.00 75 1011.9
20260905092948 28 14 0.0 0.0 0.00 0.00 0.00 74 1011.7
20260905092443 28 21 0.0 0.0 0.00 0.00 0.00 74 1011.6
20260905091938 28 1 0.0 0.0 0.00 0.00 0.00 74 1011.6
20260905091433 28 287 3.2 3.2 0.00 0.00 0.00 74 1011.6
20260905090932 28 316 1.6 1.6 0.00 0.00 0.00 74 1011.6
20260905090428 28 326 1.6 1.6 0.00 0.00 0.00 74 1011.6
20260905085927 28 299 3.2 3.2 0.00 0.00 0.00 75 1011.5
20260905085426 28 297 1.6 1.6 0.00 0.00 0.00 75 1011.6
20260905084922 28 347 1.6 1.6 0.00 0.00 0.00 75 1011.5
20260905084421 28 13 0.0 1.6 0.00 0.00 0.00 76 1011.6
20260905083916 28 312 1.6 1.6 0.00 0.00 0.00 76 1011.5
20260905083412 28 265 1.6 3.2 0.00 0.00 0.00 76 1011.8
20260905082908 28 355 1.6 1.6 0.00 0.00 0.00 76 1011.6
20260905082404 28 280 1.6 1.6 0.00 0.00 0.00 76 1011.8
20260905081858 28 240 1.6 1.6 0.00 0.00 0.00 75 1011.9
20260905081353 28 306 0.0 1.6 0.00 0.00 0.00 75 1012.1
20260905080852 28 295 0.0 0.0 0.00 0.00 0.00 75 1012.0
20260905080347 28 248 4.8 4.8 0.00 0.00 0.00 75 1012.1
20260905075845 28 233 3.2 3.2 0.00 0.00 0.00 75 1012.0
20260905075339 28 245 1.6 3.2 0.00 0.00 0.00 75 1011.9
20260905074839 28 229 3.2 3.2 0.00 0.00 0.00 75 1011.9
20260905074335 28 251 0.0 1.6 0.00 0.00 0.00 77 1011.9
20260905073830 28 162 0.0 0.0 0.00 0.00 0.00 77 1012.1
20260905073325 28 346 0.0 0.0 0.00 0.00 0.00 78 1011.9
20260905072820 28 211 1.6 1.6 0.00 0.00 0.00 78 1012.0
20260905072315 28 226 1.6 1.6 0.00 0.00 0.00 77 1011.9
20260905071812 29 213 1.6 1.6 0.00 0.00 0.00 76 1012.0
20260905071308 28 291 0.0 1.6 0.00 0.00 0.00 75 1012.0
20260905070802 28 343 0.0 0.0 0.00 0.00 0.00 75 1012.0
20260905070258 28 323 1.6 1.6 0.00 0.00 0.00 75 1012.0
20260905065757 28 267 3.2 4.8 0.00 0.00 0.00 76 1011.8
20260905065250 28 297 1.6 1.6 0.00 0.00 0.00 76 1012.0
20260905064746 29 339 1.6 1.6 0.00 0.00 0.00 76 1012.1
20260905064241 29 349 1.6 1.6 0.00 0.00 0.00 75 1012.3
20260905063740 29 44 0.0 0.0 0.00 0.00 0.00 75 1012.1
20260905063236 29 195 0.0 0.0 0.00 0.00 0.00 75 1012.1
20260905062731 29 184 0.0 1.6 0.00 0.00 0.00 75 1012.1
20260905062226 29 240 1.6 1.6 0.00 0.00 0.00 75 1012.2
20260905061726 29 222 1.6 3.2 0.00 0.00 0.00 75 1012.1
20260905061220 29 230 3.2 3.2 0.00 0.00 0.00 74 1012.3
20260905060715 29 238 4.8 4.8 0.00 0.00 0.00 74 1012.3
20260905060212 30 212 1.6 1.6 0.00 0.00 0.00 73 1012.2
20260905055710 30 135 0.0 0.0 0.00 0.00 0.00 73 1012.3
20260905055205 30 215 3.2 3.2 0.00 0.00 0.00 73 1012.3
20260905054700 30 226 4.8 4.8 0.00 0.00 0.00 73 1012.4
20260905054156 30 191 3.2 3.2 0.00 0.00 0.00 73 1012.3
20260905053656 30 200 1.6 3.2 0.00 0.00 0.00 73 1012.7
20260905053151 30 159 0.0 1.6 0.00 0.00 0.00 73 1012.7
20260905052645 30 71 0.0 0.0 0.00 0.00 0.00 71 1012.6
20260905052140 30 32 0.0 0.0 0.00 0.00 0.00 69 1012.7
20260905051635 30 99 1.6 1.6 0.00 0.00 0.00 69 1012.6
20260905051131 30 214 1.6 1.6 0.00 0.00 0.00 69 1012.5
20260905050622 30 221 3.2 3.2 0.00 0.00 0.00 69 1012.5
20260905050119 30 336 1.6 1.6 0.00 0.00 0.00 69 1012.5
20260905045618 30 279 1.6 1.6 0.00 0.00 0.00 69 1012.3
20260905045114 31 41 1.6 1.6 0.00 0.00 0.00 68 1012.3
20260905044614 31 296 1.6 3.2 0.00 0.00 0.00 68 1012.1
20260905044109 31 224 3.2 3.2 0.00 0.00 0.00 68 1012.2
20260905043607 31 196 3.2 3.2 0.00 0.00 0.00 68 1012.4
20260905043103 31 311 3.2 3.2 0.00 0.00 0.00 68 1012.3
20260905042601 31 241 1.6 1.6 0.00 0.00 0.00 68 1012.4
20260905042057 31 247 1.6 1.6 0.00 0.00 0.00 67 1012.1
20260905041552 31 247 3.2 3.2 0.00 0.00 0.00 66 1012.4
20260905041048 31 245 3.2 3.2 0.00 0.00 0.00 66 1012.2
20260905040547 31 205 3.2 3.2 0.00 0.00 0.00 65 1012.2
20260905040046 31 93 1.6 3.2 0.00 0.00 0.00 65 1012.4
20260905035541 31 163 1.6 1.6 0.00 0.00 0.00 65 1012.3
20260905035038 31 236 1.6 1.6 0.00 0.00 0.00 65 1012.6
20260905034533 31 13 0.0 0.0 0.00 0.00 0.00 66 1012.8
20260905034032 31 23 0.0 0.0 0.00 0.00 0.00 65 1012.6
20260905033526 32 20 0.0 1.6 0.00 0.00 0.00 64 1012.4
20260905033023 32 243 3.2 3.2 0.00 0.00 0.00 64 1012.7
20260905032517 32 55 0.0 0.0 0.00 0.00 0.00 63 1012.7
20260905032013 32 337 1.6 3.2 0.00 0.00 0.00 62 1012.6
20260905031509 32 333 1.6 1.6 0.00 0.00 0.00 61 1012.7
20260905031003 32 232 1.6 3.2 0.00 0.00 0.00 61 1012.4
20260905030458 32 68 0.0 0.0 0.00 0.00 0.00 61 1012.6
20260905025957 32 149 0.0 1.6 0.00 0.00 0.00 61 1012.9
20260905025453 32 91 0.0 0.0 0.00 0.00 0.00 61 1012.7
20260905024949 32 80 0.0 0.0 0.00 0.00 0.00 61 1012.4
20260905024449 32 91 0.0 0.0 0.00 0.00 0.00 61 1012.5
20260905023945 32 117 1.6 1.6 0.00 0.00 0.00 61 1012.4
20260905023440 32 104 0.0 1.6 0.00 0.00 0.00 61 1012.6
20260905022939 32 80 0.0 0.0 0.00 0.00 0.00 61 1012.5
20260905022434 32 88 0.0 0.0 0.00 0.00 0.00 61 1012.6
20260905021930 32 72 0.0 0.0 0.00 0.00 0.00 61 1012.5
20260905021429 32 66 0.0 0.0 0.00 0.00 0.00 61 1012.5
20260905020919 33 154 0.0 1.6 0.00 0.00 0.00 61 1012.4
20260905020418 33 220 1.6 1.6 0.00 0.00 0.00 60 1012.5
20260905015918 33 81 0.0 1.6 0.00 0.00 0.00 59 1012.2
20260905015416 33 79 0.0 0.0 0.00 0.00 0.00 59 1012.1
20260905014916 33 316 0.0 0.0 0.00 0.00 0.00 59 1012.1
20260905014411 33 9 0.0 0.0 0.00 0.00 0.00 58 1012.1
20260905013906 33 170 0.0 1.6 0.00 0.00 0.00 58 1012.1
20260905013403 33 233 1.6 1.6 0.00 0.00 0.00 58 1011.7
20260905012858 33 143 1.6 1.6 0.00 0.00 0.00 59 1011.8
20260905012353 33 181 0.0 0.0 0.00 0.00 0.00 60 1011.7
20260905011850 33 184 1.6 1.6 0.00 0.00 0.00 59 1011.9
20260905011345 34 118 1.6 1.6 0.00 0.00 0.00 59 1011.8
20260905010841 35 147 0.0 1.6 0.00 0.00 0.00 56 1011.6
20260905010336 35 231 4.8 4.8 0.00 0.00 0.00 55 1011.8
20260905005832 35 236 3.2 3.2 0.00 0.00 0.00 54 1011.6
20260905005327 35 266 3.2 3.2 0.00 0.00 0.00 53 1011.4
20260905004828 35 219 3.2 3.2 0.00 0.00 0.00 52 1011.5
20260905004317 35 251 4.8 8.0 0.00 0.00 0.00 52 1011.5
20260905003812 35 239 4.8 4.8 0.00 0.00 0.00 51 1011.3
20260905003309 35 243 4.8 8.0 0.00 0.00 0.00 51 1011.5
20260905002808 35 246 3.2 3.2 0.00 0.00 0.00 51 1011.7
20260905002306 35 233 4.8 4.8 0.00 0.00 0.00 51 1011.5
20260905001758 36 220 6.4 8.0 0.00 0.00 0.00 51 1011.6
20260905001258 36 234 3.2 3.2 0.00 0.00 0.00 51 1011.6
20260905000753 36 247 1.6 3.2 0.00 0.00 0.00 50 1011.5
20260905000249 36 223 4.8 4.8 0.00 0.00 0.00 49 1011.5
20260904235743 36 15 3.2 3.2 0.00 0.00 0.00 49 1011.6
20260904235238 36 249 3.2 3.2 0.00 0.00 0.00 49 1011.7
20260904234733 36 242 4.8 4.8 0.00 0.00 0.00 48 1011.5
20260904234228 36 227 4.8 4.8 0.00 0.00 0.00 48 1011.6
20260904233724 36 219 6.4 8.0 0.00 0.00 0.00 48 1011.6
20260904233220 36 267 4.8 4.8 0.00 0.00 0.00 48 1011.6
20260904232717 37 239 8.0 8.0 0.00 0.00 0.00 47 1011.5
20260904232213 37 52 0.0 1.6 0.00 0.00 0.00 48 1011.4
20260904231707 37 342 0.0 1.6 0.00 0.00 0.00 47 1011.3
20260904231203 37 187 3.2 3.2 0.00 0.00 0.00 47 1011.4
20260904230703 37 221 6.4 8.0 0.00 0.00 0.00 47 1011.3
20260904230158 37 291 4.8 8.0 0.00 0.00 0.00 47 1011.5
20260904225656 37 236 4.8 4.8 0.00 0.00 0.00 48 1011.4
20260904225151 37 244 8.0 9.7 0.00 0.00 0.00 48 1011.4